UMII

Details ICAO UMII (VTB)
Name VITEBSK
Region Belarus and Russia (Kaliningrad Oblast)
Timezone Europe/Minsk (UTC+3.0)
Plans Departing 36
Arriving 22
Stats Elevation 683 ft / 208 m (AMSL)
Location 55.126497° 30.349642°
Runways 1
Magnetic Variation 9.065° E
Sunrise 2018-05-25 01:36:22 UTC / 2018-05-25 04:36:22 Local
Sunset 2018-05-25 18:17:34 UTC / 2018-05-25 21:17:34 Local
Advertisement - Login to hide

Runways

ID Width Length Bearing (true) Bearing (mag) Surface Threshold Offset Overrun Length
06 138 ft / 42 m 8,531 ft / 2,600 m 61.93° 52.87° Asphalt 0 ft / 0 m 0 ft / 0 m
24 138 ft / 42 m 8,531 ft / 2,600 m 241.96° 232.90° Asphalt 0 ft / 0 m 0 ft / 0 m

Approach Navaids

Runway Type Ident Frequency Range Bearing (true) Bearing (mag) Slope Elevation
24 Localiser IUU 111.90 MHz 18 nm / 33 km 239.76° 230.70° - 683 ft / 208 m (AMSL)
24 Glidescope IUU 111.90 MHz 10 nm / 19 km 241.95° 232.88° 3.00° 683 ft / 208 m (AMSL)

Map

Weather


0- 5 10 15 20 25 30 35+ Temperature / ° C

Clouds and Precipitation
Forecast for 2018-05-25 12:00 UTC. Updated 2 hours ago

Ground ~20,000 ft ~40,000 ft Winds

METAR

UMII 251300Z 05005G08MPS 020V090 9999 SCT040 22/10 Q1026 R05/D NOSIG

TAF

Not found

Frequencies

Approach 120.40 MHz APP
Approach 124.00 MHz APP
Warning: Do not use this data for real-world aviation or navigation. No guarantee of current accuracy is given.